Chihuahua, Mexico

1:21 PM MST on February 19, 2018 (GMT -0700)
Gen Div P A Roberto Fierro

Weather History for MMCU - December, 2012

Change the Weather History Date:

Wednesday, December 19, 2012

  Actual Average Record
Temperature  
Mean Temperature 64 °F -  
Max Temperature 75 °F 61 °F 76 °F (2013)
Min Temperature 54 °F 30 °F 14 °F (1996)
Growing Degree Days 14 (Base 50)    
Moisture  
Dew Point 19 °F    
Average Humidity 15    
Maximum Humidity 28    
Minimum Humidity 7    
Precipitation  
Precipitation 0.00 in - - ()
Sea Level Pressure  
Sea Level Pressure 29.81 in    
Wind  
Wind Speed 12 mph ()    
Max Wind Speed 23 mph    
Max Gust Speed 31 mph    
Visibility 8.8 miles    
Events      
Averages and records for this station are not official NWS values.
T = Trace of Precipitation, MM = Missing Value Source: Averaged Metar Reports

Daily Weather History Graph

Daily Weather History Graph

Search for Another Location

Airport or City:

Trip Planner

Search our weather history database for the weather conditions in past years. The results will help you decide how hot, cold, wet, or windy it might be!

Date:

Astronomy

Dec. 19, 2012 Rise Set
Actual Time 6:51 AM MST 5:10 PM MST
Civil Twilight 6:25 AM MST 5:36 PM MST
Nautical Twilight 5:56 AM MST 6:06 PM MST
Astronomical Twilight 5:27 AM MST 6:35 PM MST
Moon 11:33 AM MST No Moon Set
Length of Visible Light 11h 10m
Length of Day
10h 18m
Waxing Crescent, 45% of the Moon is Illuminated
Dec 19
Waxing Crescent
Dec 19
First Quarter
Dec 28
Full
Jan 4
Last Quarter
Jan 11
New

Hourly Weather History & Observations

Time (MST) Temp. Dew Point Humidity Pressure Visibility Wind Dir Wind Speed Gust Speed Precip Events Conditions
4:45 AM 59 °F 11 °F 7% 29.57 in 1 mi SSW 2.2 mph - -  
5:40 AM 57.2 °F 8.6 °F 14% 29.68 in 10.0 mi SSW 16.1 mph - N/A   Mostly Cloudy
6:40 AM 53.6 °F 14.0 °F 21% 29.90 in 10.0 mi SSW 13.8 mph - N/A   Mostly Cloudy
7:41 AM 55.4 °F 14.0 °F 20% 29.79 in 10.0 mi South 16.1 mph - N/A   Mostly Cloudy
7:50 AM 56 °F 28 °F 22% 29.64 in 6 mi South 6.7 mph - -   Scattered Clouds
8:40 AM 60.8 °F 15.8 °F 17% 29.92 in 10.0 mi South 20.7 mph - N/A   Mostly Cloudy
10:00 AM 64.4 °F 14.0 °F 14% 29.93 in 10.0 mi SSW 23.0 mph - N/A   Overcast
10:45 AM 68.0 °F 14.0 °F 12% 29.73 in 10.0 mi SSW 17.3 mph - N/A   Mostly Cloudy
10:50 AM 69 °F 25 °F 10% 29.63 in 6 mi SSW 11.2 mph - -   Mostly Cloudy
11:40 AM 69.8 °F 14.0 °F 12% 29.91 in 10.0 mi WSW 6.9 mph - N/A   Mostly Cloudy
12:40 PM 73.4 °F 21.2 °F 14% 29.88 in 10.0 mi WSW 17.3 mph 29.9 mph N/A   Mostly Cloudy
1:42 PM 75.2 °F 21.2 °F 13% 29.69 in 10.0 mi West 19.6 mph 31.1 mph N/A   Mostly Cloudy
1:45 PM 76 °F 27 °F 8% 29.57 in 6 mi West 17.9 mph - -   Mostly Cloudy
2:40 PM 73.4 °F 17.6 °F 12% 29.91 in 10.0 mi West 18.4 mph - N/A   Overcast
3:40 PM 69.8 °F 14.0 °F 12% 29.94 in 10.0 mi West 23.0 mph - N/A   Overcast
4:40 PM 68 °F 28 °F 12% 29.64 in 6 mi WNW 11.2 mph - -   Mostly Cloudy
4:40 PM 66.2 °F 19.4 °F 17% 29.77 in 10.0 mi West 10.4 mph - N/A   Overcast
5:40 PM 64.4 °F 30.2 °F 28% 30.03 in 10.0 mi West 15.0 mph 23.0 mph N/A   Mostly Cloudy
6:40 PM - - N/A% - 10.0 mi NW 9.2 mph - N/A   Scattered Clouds
7:40 PM 57.2 °F 15.8 °F 20% 29.96 in 10.0 mi NW 15.0 mph - N/A   Mostly Cloudy
8:40 PM 55.4 °F 17.6 °F 23% 30.15 in 10.0 mi NW 15.0 mph - N/A   Mostly Cloudy